North Canton, OH

11:19 AM EST on February 13, 2016 (GMT -0500)
Akron-Canton Regional

Weather History for KCAK - October, 2013

Change the Weather History Date:

Friday, October 4, 2013

  Actual Average Record
Temperature  
Mean Temperature 72 °F 56 °F  
Max Temperature 81 °F 65 °F 86 °F (1951)
Min Temperature 63 °F 46 °F 28 °F (1974)
Degree Days  
Heating Degree Days 0 10  
Month to date heating degree days 0 37  
Since 1 July heating degree days 115 176  
Cooling Degree Days 7 0  
Month to date cooling degree days 21 3  
Year to date cooling degree days 822 649  
Growing Degree Days 22 (Base 50)    
Moisture  
Dew Point 64 °F    
Average Humidity 76    
Maximum Humidity 93    
Minimum Humidity 58    
Precipitation  
Precipitation T in 0.09 in 1.50 in (1954)
Month to date precipitation 1.54 0.37  
Year to date precipitation 31.51 31.02  
Snow  
Snow 0.00 in 0.00 in - ()
Month to date snowfall 0.0 0.0  
Since 1 July snowfall 0.0 0.0  
Since 1 September snowfall 0.0 0.0  
Snow Depth 0.00 in    
Sea Level Pressure  
Sea Level Pressure 30.06 in    
Wind  
Wind Speed 6 mph (SW)    
Max Wind Speed 14 mph    
Max Gust Speed 20 mph    
Visibility 5 miles    
Events Rain    
T = Trace of Precipitation, MM = Missing Value Source: NWS Daily Summary

Daily Weather History Graph

Daily Weather History Graph

Search for Another Location

Airport or City:

Trip Planner

Search our weather history database for the weather conditions in past years. The results will help you decide how hot, cold, wet, or windy it might be!

Date:

Astronomy

Oct. 04, 2013 Rise Set
Actual Time 7:25 AM EDT 7:02 PM EDT
Civil Twilight 6:58 AM EDT 7:29 PM EDT
Nautical Twilight 6:26 AM EDT 8:01 PM EDT
Astronomical Twilight 5:54 AM EDT 8:33 PM EDT
Moon 6:59 AM EDT (10/4) 6:43 PM EDT (10/4)
Length of Visible Light 12h 31m
Length of Day
11h 36m
Waning Crescent, 0% of the Moon is Illuminated
Oct 4
Waning Crescent
Oct 4
New
Oct 11
First Quarter
Oct 18
Full
Oct 26
Last Quarter

Hourly Weather History & Observations

Time (EDT) Temp. Heat Index Dew Point Humidity Pressure Visibility Wind Dir Wind Speed Gust Speed Precip Events Conditions
12:51 AM 66.9 °F - 64.9 °F 93% 30.04 in 4.0 mi SSW 4.6 mph - N/A   Overcast
1:51 AM 66.9 °F - 64.0 °F 90% 30.03 in 3.0 mi SSW 5.8 mph - N/A   Mostly Cloudy
2:51 AM 64.9 °F - 63.0 °F 93% 30.04 in 3.0 mi SW 5.8 mph - N/A   Scattered Clouds
3:51 AM 64.9 °F - 63.0 °F 93% 30.03 in 3.0 mi SW 5.8 mph - N/A   Mostly Cloudy
4:51 AM 64.0 °F - 62.1 °F 93% 30.04 in 3.0 mi SSW 5.8 mph - N/A   Scattered Clouds
5:51 AM 64.9 °F - 63.0 °F 93% 30.04 in 3.0 mi SSW 4.6 mph - N/A   Overcast
6:51 AM 64.0 °F - 62.1 °F 93% 30.06 in 3.0 mi SW 5.8 mph - N/A   Scattered Clouds
7:51 AM 64.0 °F - 62.1 °F 93% 30.08 in 3.0 mi SW 4.6 mph - N/A   Scattered Clouds
7:58 AM 64.4 °F - 62.6 °F 94% 30.09 in 1.8 mi SSW 5.8 mph - N/A   Clear
8:08 AM 64.4 °F - 62.6 °F 94% 30.09 in 2.0 mi SSW 4.6 mph - N/A   Clear
8:16 AM 64.4 °F - 62.6 °F 94% 30.09 in 3.0 mi SSW 5.8 mph - N/A   Scattered Clouds
8:51 AM 66.9 °F - 64.0 °F 90% 30.09 in 3.0 mi SW 5.8 mph - N/A   Scattered Clouds
9:51 AM 71.1 °F - 66.0 °F 84% 30.08 in 4.0 mi SW 5.8 mph - N/A   Haze
10:51 AM 73.9 °F - 66.9 °F 79% 30.07 in 5.0 mi SW 8.1 mph - N/A   Haze
11:51 AM 75.9 °F - 64.9 °F 69% 30.06 in 6.0 mi West 10.4 mph - N/A   Haze
12:22 PM 75.2 °F - 64.4 °F 69% 30.09 in 7.0 mi WNW 9.2 mph - N/A   Mostly Cloudy
12:51 PM 75.0 °F - 64.9 °F 71% 30.06 in 8.0 mi West 8.1 mph - N/A   Mostly Cloudy
1:35 PM 78.8 °F - 64.4 °F 61% 30.07 in 8.0 mi SW 6.9 mph - N/A   Mostly Cloudy
1:51 PM 80.1 °F 81.7 °F 64.0 °F 58% 30.05 in 8.0 mi West 8.1 mph - N/A   Scattered Clouds
2:51 PM 77.0 °F - 63.0 °F 62% 30.04 in 10.0 mi WSW 9.2 mph - N/A   Overcast
3:51 PM 75.0 °F - 64.9 °F 71% 30.04 in 9.0 mi WSW 6.9 mph - N/A   Overcast
4:51 PM 75.0 °F - 64.9 °F 71% 30.04 in 9.0 mi WSW 8.1 mph - N/A   Mostly Cloudy
5:51 PM 73.9 °F - 66.0 °F 76% 30.06 in 8.0 mi WSW 5.8 mph - N/A   Overcast
6:51 PM 72.0 °F - 66.0 °F 81% 30.06 in 10.0 mi SW 3.5 mph - 0.00 in Rain Light Rain
7:51 PM 70.0 °F - 66.0 °F 87% 30.05 in 8.0 mi Calm Calm - 0.00 in   Mostly Cloudy
8:51 PM 68.0 °F - 64.9 °F 90% 30.06 in 7.0 mi Calm Calm - N/A   Mostly Cloudy
9:51 PM 69.1 °F - 66.0 °F 90% 30.06 in 6.0 mi South 3.5 mph - N/A   Overcast
10:51 PM 69.1 °F - 66.0 °F 90% 30.06 in 6.0 mi South 4.6 mph - N/A   Overcast
11:51 PM 70.0 °F - 66.0 °F 87% 30.06 in 6.0 mi SSE 4.6 mph - N/A   Overcast